Weather History for Beverly, MA

Change the Weather History Date:

Sunday, January 5, 2014

  Actual Average Record
Temperature  
Mean Temperature 28 °F -  
Max Temperature 37 °F 33 °F - (-1)
Min Temperature 19 °F 19 °F - (-1)
Degree Days  
Heating Degree Days 37    
Moisture  
Dew Point 24 °F    
Average Humidity 75    
Maximum Humidity 96    
Minimum Humidity 49    
Precipitation  
Precipitation 0.04 in - - ()
Sea Level Pressure  
Sea Level Pressure 30.18 in    
Wind  
Wind Speed 7 mph (South)    
Max Wind Speed 14 mph    
Max Gust Speed -    
Visibility 6 miles    
Events Rain    
Averages and records for this station are not official NWS values.
T = Trace of Precipitation, MM = Missing Value Source: NWS Daily Summary

Daily Weather History Graph

Daily Weather History Graph

Search for Another Location

Airport:

Trip Planner

Search our weather history database for the weather conditions in past years. The results will help you decide how hot, cold, wet, or windy it might be!

Date:

Astronomy

Jan. 05, 2014 Rise Set
Actual Time 7:13 AM EST 4:24 PM EST
Civil Twilight 6:41 AM EST 4:56 PM EST
Nautical Twilight 6:06 AM EST 5:31 PM EST
Astronomical Twilight 5:32 AM EST 6:06 PM EST
Moon 9:46 AM EST (1/5) 9:56 PM EST (1/5)
Length of Visible Light 10h 14m
Length of Day
9h 11m
Waxing Crescent, 24% of the Moon is Illuminated
Jan 5
Waxing Crescent
Jan 7
First Quarter
Jan 15
Full
Jan 24
Last Quarter
Jan 30
New

Hourly Weather History & Observations

Time (EST) Temp. Windchill Dew Point Humidity Pressure Visibility Wind Dir Wind Speed Gust Speed Precip Events Conditions
12:53 AM 27.0 °F 15.6 °F 12.0 °F 53% 30.26 in 10.0 mi SW 13.8 mph - N/A   Clear
1:53 AM 26.1 °F 15.0 °F 9.0 °F 49% 30.25 in 10.0 mi SW 12.7 mph - N/A   Clear
2:53 AM 25.0 °F 15.5 °F 10.0 °F 53% 30.24 in 10.0 mi WSW 9.2 mph - N/A   Clear
3:53 AM 23.0 °F 13.9 °F 10.0 °F 58% 30.23 in 10.0 mi SSW 8.1 mph - N/A   Clear
4:53 AM 21.0 °F 16.2 °F 9.0 °F 60% 30.25 in 10.0 mi SW 3.5 mph - N/A   Clear
5:53 AM 21.9 °F 17.2 °F 10.0 °F 60% 30.27 in 10.0 mi SW 3.5 mph - N/A   Clear
6:53 AM 19.9 °F 13.4 °F 10.0 °F 65% 30.28 in 10.0 mi WSW 4.6 mph - N/A   Clear
7:53 AM 21.0 °F 13.4 °F 10.9 °F 65% 30.30 in 10.0 mi WSW 5.8 mph - N/A   Clear
8:53 AM 24.1 °F 17.0 °F 12.0 °F 60% 30.30 in 10.0 mi West 5.8 mph - N/A   Clear
9:53 AM 27.0 °F 19.5 °F 12.0 °F 53% 30.29 in 10.0 mi West 6.9 mph - N/A   Clear
10:53 AM 28.9 °F 21.9 °F 12.9 °F 51% 30.30 in 10.0 mi SSW 6.9 mph - N/A   Clear
11:53 AM 30.0 °F 24.1 °F 15.1 °F 54% 30.27 in 10.0 mi South 5.8 mph - N/A   Partly Cloudy
12:53 PM 32.0 °F 26.4 °F 16.0 °F 52% 30.24 in 10.0 mi SSW 5.8 mph - N/A   Overcast
1:53 PM 34.0 °F 29.8 °F 17.1 °F 50% 30.23 in 10.0 mi South 4.6 mph - N/A   Mostly Cloudy
2:53 PM 36.0 °F 31.1 °F 19.0 °F 50% 30.22 in 10.0 mi South 5.8 mph - N/A   Overcast
3:53 PM 36.0 °F 31.1 °F 21.0 °F 55% 30.21 in 10.0 mi South 5.8 mph - N/A   Overcast
4:34 PM 36.0 °F 30.3 °F 27.0 °F 70% 30.22 in 9.0 mi South 6.9 mph - N/A   Overcast
4:53 PM 35.1 °F 31.0 °F 30.0 °F 82% 30.22 in 4.0 mi SSW 4.6 mph - 0.00 in Rain Light Rain
5:08 PM 34.0 °F 29.8 °F 32.0 °F 92% 30.22 in 2.5 mi SSW 4.6 mph - 0.01 in Rain Light Rain
5:23 PM 34.0 °F 31.0 °F 32.0 °F 92% 30.21 in 3.0 mi South 3.5 mph - 0.02 in Rain Light Rain
5:53 PM 35.1 °F - 32.0 °F 89% 30.20 in 5.0 mi Calm Calm - 0.02 in   Overcast
6:53 PM 36.0 °F - 33.1 °F 89% 30.18 in 5.0 mi Calm Calm - N/A   Overcast
7:53 PM 35.1 °F 32.2 °F 33.1 °F 92% 30.17 in 2.5 mi NE 3.5 mph - N/A   Overcast
8:09 PM 35.1 °F 32.2 °F 33.1 °F 92% 30.16 in 2.5 mi NE 3.5 mph - N/A   Overcast
8:22 PM 34.0 °F 31.0 °F 32.0 °F 92% 30.15 in 2.0 mi North 3.5 mph - N/A   Overcast
8:49 PM 35.6 °F 31.7 °F 33.8 °F 93% 30.13 in 2.5 mi NE 4.6 mph - N/A   Overcast
8:53 PM 35.1 °F 31.0 °F 34.0 °F 96% 30.12 in 2.5 mi NE 4.6 mph - N/A   Overcast
9:17 PM 36.0 °F 30.3 °F 34.0 °F 93% 30.10 in 3.0 mi NE 6.9 mph - N/A   Overcast
9:53 PM 37.0 °F 31.6 °F 35.1 °F 93% 30.08 in 4.0 mi NE 6.9 mph - N/A   Overcast
10:02 PM 37.0 °F 31.6 °F 35.1 °F 93% 30.08 in 4.0 mi NE 6.9 mph - N/A   Overcast
10:53 PM 37.0 °F 32.4 °F 35.1 °F 93% 30.03 in 3.0 mi NNE 5.8 mph - 0.00 in   Overcast
11:12 PM 37.0 °F 32.4 °F 35.1 °F 93% 30.01 in 2.5 mi NE 5.8 mph - N/A   Overcast
11:28 PM 37.0 °F 32.4 °F 35.1 °F 93% 29.98 in 1.2 mi NE 5.8 mph - 0.01 in Rain Light Rain
11:51 PM 37.4 °F 33.8 °F 35.6 °F 93% 29.95 in 1.0 mi East 4.6 mph - 0.02 in Rain Light Rain
11:53 PM 37.9 °F 34.4 °F 36.0 °F 93% 29.94 in 1.0 mi East 4.6 mph - 0.02 in Rain Light Rain